Total_Precipitation_Accumulation
0.01 0.01 0.06 0.03 0.01 0.02 0.03 0.04 0.04 0.04 0.04 0.04 0.04 0.03 0.02 0.01 0.01 0.01 0.01 0.02 0.02 0.03 0.03 0.04 0.07 0.08 0.08 0.07 0.06 0.05 0.04 0.04 0.06 0.06 0.08 0.08 0.09 0.15 0.27 0.34 0.42 0.37 0.26
0.01 0.01 0.03 0.02 0.01 0.02 0.04 0.04 0.05 0.05 0.05 0.04 0.04 0.03 0.03 0.02 0.01 0.02 0.02 0.02 0.02 0.03 0.03 0.04 0.05 0.05 0.05 0.04 0.03 0.02 0.03 0.04 0.06 0.09 0.10 0.08 0.09 0.13 0.20 0.24 0.41 0.32 0.21
0.01 0.00 0.02 0.01 0.01 0.03 0.03 0.04 0.06 0.06 0.07 0.06 0.06 0.06 0.05 0.04 0.02 0.02 0.02 0.02 0.02 0.02 0.02 0.02 0.03 0.03 0.03 0.03 0.02 0.02 0.03 0.05 0.10 0.15 0.23 0.18 0.09 0.16 0.23 0.26 0.29 0.25 0.20
0.02 0.01 0.01 0.01 0.02 0.02 0.03 0.04 0.06 0.06 0.06 0.07 0.10 0.10 0.08 0.04 0.03 0.02 0.02 0.02 0.02 0.02 0.02 0.02 0.02 0.02 0.02 0.02 0.02 0.02 0.03 0.06 0.12 0.22 0.43 0.29 0.14 0.14 0.18 0.19 0.19 0.20 0.17
0.02 0.02 0.01 0.02 0.02 0.02 0.03 0.04 0.07 0.07 0.07 0.09 0.14 0.14 0.11 0.05 0.06 0.06 0.04 0.03 0.03 0.03 0.02 0.02 0.02 0.02 0.01 0.01 0.02 0.02 0.03 0.06 0.12 0.24 0.30 0.31 0.33 0.17 0.13 0.16 0.19 0.23 0.17
0.04 0.02 0.02 0.02 0.02 0.02 0.03 0.04 0.09 0.11 0.09 0.10 0.13 0.13 0.11 0.09 0.11 0.10 0.05 0.04 0.04 0.04 0.04 0.02 0.02 0.02 0.01 0.01 0.02 0.02 0.04 0.07 0.13 0.20 0.22 0.21 0.29 0.24 0.19 0.28 0.35 0.35 0.26
0.06 0.03 0.02 0.03 0.03 0.03 0.03 0.03 0.06 0.09 0.10 0.12 0.13 0.10 0.08 0.06 0.06 0.06 0.04 0.04 0.04 0.04 0.04 0.03 0.03 0.03 0.02 0.02 0.02 0.02 0.04 0.09 0.15 0.17 0.19 0.26 0.32 0.22 0.29 0.50 0.64 0.59 0.47
0.07 0.04 0.04 0.04 0.04 0.04 0.03 0.03 0.04 0.05 0.06 0.06 0.07 0.06 0.05 0.04 0.06 0.07 0.06 0.05 0.05 0.05 0.05 0.05 0.05 0.05 0.05 0.04 0.03 0.04 0.06 0.07 0.10 0.14 0.18 0.26 0.23 0.18 0.41 0.65 0.80 0.80 0.73
0.06 0.04 0.06 0.05 0.05 0.05 0.05 0.04 0.04 0.05 0.06 0.06 0.06 0.06 0.06 0.06 0.07 0.09 0.11 0.11 0.10 0.11 0.11 0.11 0.09 0.07 0.07 0.07 0.05 0.05 0.06 0.09 0.14 0.18 0.21 0.28 0.23 0.35 0.72 0.86 0.86 0.91 0.89
0.09 0.06 0.07 0.07 0.07 0.07 0.06 0.06 0.06 0.07 0.07 0.07 0.08 0.08 0.08 0.08 0.09 0.13 0.14 0.15 0.18 0.22 0.23 0.18 0.16 0.14 0.13 0.10 0.08 0.07 0.08 0.11 0.12 0.16 0.27 0.25 0.27 0.52 0.88 1.02 1.05 1.03 0.98
0.14 0.10 0.08 0.08 0.09 0.10 0.09 0.09 0.10 0.10 0.10 0.10 0.13 0.14 0.14 0.16 0.23 0.30 0.32 0.39 0.39 0.41 0.43 0.39 0.36 0.35 0.32 0.20 0.22 0.26 0.19 0.10 0.12 0.16 0.22 0.22 0.33 0.58 0.88 1.03 1.07 1.10 1.04
0.21 0.15 0.14 0.14 0.14 0.15 0.16 0.21 0.23 0.23 0.26 0.23 0.36 0.43 0.44 0.54 0.51 0.35 0.45 0.68 0.80 0.89 0.86 0.84 0.84 0.70 0.58 0.48 0.81 0.99 0.34 0.23 0.22 0.22 0.29 0.34 0.54 0.80 1.06 1.06 1.03 1.05 1.00
0.28 0.24 0.26 0.25 0.25 0.24 0.31 0.31 0.35 0.46 0.57 0.54 0.58 0.65 0.71 0.73 0.60 0.48 0.57 0.79 1.03 1.15 1.06 1.33 1.40 1.03 1.07 1.19 1.18 1.10 0.62 0.58 0.56 0.56 0.59 0.74 0.92 1.16 1.49 1.34 1.13 1.01 0.95
0.37 0.35 0.51 0.44 0.44 0.51 0.58 0.43 0.44 0.52 0.61 0.67 0.80 0.84 0.90 0.98 0.90 0.87 0.90 0.96 1.13 1.29 1.51 1.61 1.72 1.60 1.58 1.56 1.50 1.34 1.11 1.08 0.97 1.19 1.22 1.14 1.17 1.30 1.68 1.62 1.30 1.11 0.96
0.65 0.61 0.64 0.68 0.72 0.79 0.70 0.69 0.65 0.73 0.78 0.82 0.89 1.01 1.04 1.23 1.30 1.32 1.22 1.19 1.19 1.34 1.51 1.65 1.74 2.03 2.17 1.89 1.57 1.45 1.40 1.46 1.33 1.40 1.35 1.28 1.18 1.23 1.47 1.62 1.50 1.35 1.15
0.87 0.95 0.89 0.91 1.03 1.12 1.15 1.19 1.18 1.04 1.03 1.02 1.00 1.06 1.13 1.29 1.47 1.55 1.47 1.44 1.33 1.36 1.52 1.72 1.89 2.28 2.29 2.15 1.74 1.59 1.54 1.49 1.37 1.31 1.37 1.53 1.36 1.20 1.21 1.35 1.49 1.44 1.33
1.14 1.20 1.24 1.35 1.53 1.62 1.60 1.64 1.60 1.45 1.36 1.29 1.29 1.34 1.33 1.37 1.49 1.52 1.38 1.33 1.38 1.53 1.68 1.76 1.97 2.26 1.96 1.93 1.69 1.63 1.48 1.30 1.17 1.13 1.28 1.42 1.29 1.20 1.23 1.26 1.31 1.33 1.35
1.38 1.51 1.73 1.87 1.91 1.91 1.98 2.04 1.95 1.82 1.70 1.58 1.52 1.56 1.46 1.40 1.44 1.56 1.40 1.31 1.66 1.79 1.85 2.00 2.15 2.15 2.04 1.98 1.77 1.56 1.40 1.30 1.06 0.98 0.98 1.03 1.13 0.99 1.12 1.23 1.20 1.17 1.27
1.78 2.05 2.35 2.43 2.41 2.31 2.31 2.28 2.20 2.03 1.83 1.67 1.57 1.54 1.41 1.42 1.51 1.72 1.64 1.71 1.99 2.06 2.03 1.97 2.22 2.21 2.06 2.02 1.85 1.56 1.26 1.13 0.97 0.85 0.77 0.71 0.79 0.85 0.88 0.95 1.03 1.07 1.26
2.04 2.37 2.45 2.56 2.84 2.79 2.66 2.48 2.23 1.88 1.64 1.61 1.58 1.45 1.46 1.54 1.67 1.92 1.77 1.78 1.97 2.06 2.00 1.96 1.93 2.01 1.84 1.84 1.76 1.46 1.13 0.87 0.81 0.69 0.58 0.55 0.56 0.57 0.65 0.77 0.92 0.82 1.01
1.98 2.27 2.55 2.78 2.92 2.81 2.58 2.34 2.13 1.95 1.86 1.67 1.57 1.52 1.49 1.49 1.57 1.82 1.72 1.82 1.88 1.83 1.80 1.87 1.87 1.73 1.47 1.70 1.73 1.32 0.91 0.73 0.69 0.50 0.49 0.48 0.45 0.47 0.57 0.72 0.85 0.85 0.78
1.82 2.20 2.46 2.75 2.84 2.63 2.36 2.18 2.08 2.04 1.77 1.55 1.55 1.54 1.56 1.63 1.62 1.70 1.73 1.73 1.76 1.75 1.64 1.61 1.70 1.55 1.31 1.49 1.57 1.48 0.95 0.73 0.61 0.47 0.53 0.58 0.58 0.62 0.63 0.67 0.78 0.90 0.91
1.59 1.82 2.01 2.11 2.07 1.96 1.93 1.98 1.98 1.98 1.75 1.70 1.78 1.82 1.80 1.81 1.78 1.77 1.71 1.60 1.47 1.42 1.34 1.37 1.47 1.47 1.32 1.33 1.51 1.67 1.29 0.91 0.81 0.64 0.63 0.64 0.73 0.79 0.74 0.75 0.78 0.88 0.97
1.49 1.67 1.83 1.82 1.67 1.55 1.59 1.77 1.85 1.81 1.77 1.92 2.15 2.08 1.86 1.70 1.57 1.41 1.28 1.26 1.22 1.21 1.11 1.07 1.17 1.22 1.15 1.10 1.24 1.39 1.47 1.42 1.29 0.84 0.61 0.58 0.69 0.78 0.84 0.78 0.71 0.77 0.93
1.25 1.38 1.53 1.61 1.53 1.48 1.49 1.55 1.66 1.70 1.70 1.70 1.70 1.66 1.55 1.38 1.20 1.03 0.94 0.94 0.93 0.93 0.88 0.85 0.87 0.89 0.93 0.94 1.07 1.24 1.34 1.39 1.38 1.25 0.87 0.81 0.83 0.77 0.80 0.79 0.81 0.81 0.85
1.03 1.04 1.02 1.13 1.20 1.24 1.27 1.31 1.33 1.31 1.28 1.22 1.14 1.12 1.05 0.96 0.80 0.68 0.65 0.68 0.73 0.79 0.77 0.75 0.77 0.77 0.83 0.94 0.98 1.09 1.22 1.21 1.22 1.29 1.08 0.97 0.92 0.82 0.82 0.86 0.86 0.91 0.91